FW2360 Weather Reports


Display with metric or nautical units.
time (UTC)temp
F
wind
direction
speed
MPH
gust
MPH
rain 1hr
in
rain 24hr
in
rain mn
in
humidity
%
barometer
mb
20260504191546 75 145 1.0 5.0 0.00 0.00 0.00 40 1013.2
20260504190031 74 143 3.0 8.0 0.00 0.00 0.00 41 1013.3
20260504184538 75 239 2.0 10.0 0.00 0.00 0.00 40 1013.7
20260504183040 74 51 3.0 9.0 0.00 0.00 0.00 41 1013.7
20260504181532 73 173 2.0 6.0 0.00 0.00 0.00 41 1014.0
20260504180030 72 43 1.0 8.0 0.00 0.00 0.00 41 1014.2
20260504174531 72 0 2.0 6.0 0.00 0.00 0.00 39 1014.4
20260504173030 74 63 1.0 5.0 0.00 0.00 0.00 37 1014.4
20260504171531 74 169 3.0 9.0 0.00 0.00 0.00 37 1014.5
20260504081534 50 0 0.0 0.0 0.00 0.00 0.00 63 1016.8
20260504044537 51 0 0.0 0.0 0.00 0.00 0.00 63 1017.3
20260504043030 51 0 0.0 0.0 0.00 0.00 0.00 60 1017.2
20260504041532 51 0 0.0 0.0 0.00 0.00 0.00 58 1017.2
20260504040030 51 0 0.0 1.0 0.00 0.00 0.00 57 1017.1
20260504034546 51 0 0.0 1.0 0.00 0.00 0.00 59 1017.0
20260504033029 52 0 0.0 0.0 0.00 0.00 0.00 58 1016.9
20260504031534 52 0 0.0 0.0 0.00 0.00 0.00 61 1017.0
20260504030042 52 117 0.0 0.0 0.00 0.00 0.00 55 1016.9
20260504024532 52 0 0.0 0.0 0.00 0.00 0.00 58 1016.9
20260504023030 52 0 0.0 1.0 0.00 0.00 0.00 59 1016.8
20260504021531 53 0 0.0 1.0 0.00 0.00 0.00 55 1016.6
20260504020031 54 117 0.0 2.0 0.00 0.00 0.00 49 1016.3
20260504014541 54 0 0.0 1.0 0.00 0.00 0.00 48 1016.2
20260504013036 55 0 0.0 0.0 0.00 0.00 0.00 47 1016.1
20260504011530 56 0 0.0 0.0 0.00 0.00 0.00 43 1016.0
20260504010029 57 0 0.0 0.0 0.00 0.00 0.00 42 1016.1
20260504004532 57 0 0.0 1.0 0.00 0.00 0.00 41 1015.8
20260504003036 59 0 0.0 0.0 0.00 0.00 0.00 40 1015.8
20260504001530 60 0 0.0 1.0 0.00 0.00 0.00 36 1015.8
20260504000031 62 0 0.0 2.0 0.00 0.00 0.00 35 1015.7
20260503234540 63 0 0.0 2.0 0.00 0.00 0.00 32 1015.6
20260503233031 64 0 0.0 2.0 0.00 0.00 0.00 30 1015.5
20260503231533 64 0 0.0 3.0 0.00 0.00 0.00 28 1015.5
20260503230035 64 0 0.0 4.0 0.00 0.00 0.00 29 1015.5
20260503224532 64 253 1.0 6.0 0.00 0.00 0.00 27 1015.5
20260503223030 64 0 0.0 5.0 0.00 0.00 0.00 28 1015.5
20260503221534 64 144 2.0 7.0 0.00 0.00 0.00 29 1015.6
20260503220032 64 181 1.0 7.0 0.00 0.00 0.00 28 1015.7
20260503214533 64 192 1.0 6.0 0.00 0.00 0.00 29 1015.7
20260503213032 65 348 2.0 8.0 0.00 0.00 0.00 28 1015.7
20260503211534 65 18 1.0 4.0 0.00 0.00 0.00 30 1015.8
20260503210032 66 227 2.0 6.0 0.00 0.00 0.00 28 1015.9
20260503204544 65 174 2.0 5.0 0.00 0.00 0.00 29 1016.1
20260503203032 64 113 2.0 9.0 0.00 0.00 0.00 28 1016.3
20260503201530 64 360 2.0 8.0 0.00 0.00 0.00 31 1016.2
20260503200033 64 277 3.0 9.0 0.00 0.00 0.00 30 1016.6
20260503194535 63 256 1.0 7.0 0.00 0.00 0.00 29 1016.7
20260503193042 63 308 3.0 9.0 0.00 0.00 0.00 30 1017.1